Torna al catalogo

NOAA 16 DEB

AttivoPO
NORAD 41379·DEBRIS·🇺🇸 United States

Lanciato Sep 21, 2000 da Vandenberg Space Force Base

Loading…

Prossimi Passaggi (prossime 24 ore)

TLE

AggiornatoSource: Space-Track

Epoca: Sep 14, 2026, 04:35 UTC

1 41379U 00055JY  26257.19137019  .00004677  00000-0  12326-2 0  9997
2 41379  98.8486  46.7818 0023984 172.5466 187.6087 14.49331273555302

Traccia NOAA 16 DEB in tempo reale con AllMySat

Download on the App Store